Weather History for Solander Island, BC

Change the Weather History Date:

Sunday, November 25, 2012

  Actual Average Record
Temperature  
Mean Temperature 42 °F -  
Max Temperature 44 °F - - ()
Min Temperature 40 °F - - ()
Degree Days  
Heating Degree Days 23    
Moisture  
Dew Point 36 °F    
Average Humidity 79    
Maximum Humidity 88    
Minimum Humidity 66    
Precipitation  
Precipitation 0.12 in - - ()
Sea Level Pressure  
Sea Level Pressure 30.33 in    
Wind  
Wind Speed 5 mph ()    
Max Wind Speed 10 mph    
Max Gust Speed -    
T = Trace of Precipitation, MM = Missing Value Source: Averaged Metar Reports

Daily Weather History Graph

Daily Weather History Graph

Search for Another Location

Airport:

Trip Planner

Search our weather history database for the weather conditions in past years. The results will help you decide how hot, cold, wet, or windy it might be!

Date:

Astronomy

Nov. 25, 2012 Rise Set
Actual Time 8:01 AM PST 4:36 PM PST
Civil Twilight 7:24 AM PST 5:13 PM PST
Nautical Twilight 6:44 AM PST 5:53 PM PST
Astronomical Twilight 6:05 AM PST 6:32 PM PST
Moon 3:06 PM PST (11/25) 5:10 AM PST (11/25)
Length of Visible Light 9h 48m
Length of Day
8h 34m
Waxing Gibbous, 93% of the Moon is Illuminated
Nov 25
Waxing Gibbous
Nov 28
Full
Dec 6
Last Quarter
Dec 13
New
Dec 19
First Quarter

Hourly Weather History & Observations

Time (PST) Temp. Windchill Dew Point Humidity Pressure Visibility Wind Dir Wind Speed Gust Speed Precip Events Conditions
12:00 AM 41.7 °F 38.8 °F 38.3 °F 88% 30.32 in - East 4.6 mph - N/A   Unknown
1:00 AM 42.1 °F 39.2 °F 37.9 °F 85% 30.34 in - East 4.6 mph - N/A   Unknown
2:00 AM 41.7 °F 37.3 °F 35.2 °F 78% 30.34 in - NNE 6.9 mph - 0.08 in   Unknown
3:00 AM 41.9 °F 36.9 °F 36.7 °F 82% 30.35 in - North 8.1 mph - N/A   Unknown
4:00 AM 43 °F - 37 °F 72% 30.34 in - NNW 3.5 mph - -  
4:00 AM 42.8 °F 41.1 °F 37.0 °F 80% 30.34 in - NNW 3.5 mph - N/A   Unknown
5:00 AM 42.3 °F 38.6 °F 37.0 °F 82% 30.34 in - North 5.8 mph - N/A   Unknown
6:00 AM 41.4 °F 38.4 °F 37.4 °F 86% 30.35 in - NNE 4.6 mph - N/A   Unknown
7:00 AM 41.4 °F 37.6 °F 37.0 °F 85% 30.34 in - NNE 5.8 mph - N/A   Unknown
8:00 AM 40.6 °F 36.0 °F 37.0 °F 87% 30.34 in - North 6.9 mph - N/A   Unknown
9:00 AM 41.9 °F 38.2 °F 36.5 °F 81% 30.35 in - NNE 5.8 mph - N/A   Unknown
10:00 AM 42 °F - 36 °F 72% 30.35 in - NNE 4.6 mph - -  
10:00 AM 42.4 °F 39.6 °F 36.1 °F 78% 30.35 in - NNE 4.6 mph - N/A   Unknown
11:00 AM 43.5 °F 40.9 °F 37.4 °F 79% 30.37 in - North 4.6 mph - N/A   Unknown
12:00 PM 43.9 °F 41.3 °F 37.4 °F 78% 30.36 in - NNW 4.6 mph - N/A   Unknown
1:00 PM 43.7 °F 40.3 °F 37.2 °F 78% 30.35 in - North 5.8 mph - N/A   Unknown
2:00 PM 43.3 °F 38.6 °F 37.8 °F 81% 30.35 in - North 8.1 mph - N/A   Unknown
3:00 PM 42.8 °F 38.6 °F 37.4 °F 81% 30.34 in - North 6.9 mph - N/A   Unknown
4:00 PM 43 °F - 36 °F 67% 30.33 in - North 5.8 mph - -  
4:00 PM 43.0 °F 39.5 °F 35.6 °F 75% 30.33 in - North 5.8 mph - N/A   Unknown
5:00 PM 41.7 °F 38.0 °F 36.1 °F 81% 30.32 in - NNE 5.8 mph - N/A   Unknown
6:00 PM 42.1 °F - 36.9 °F 82% 30.31 in - ESE 2.3 mph - N/A   Unknown
7:00 PM 41.7 °F 36.7 °F 36.1 °F 81% 30.29 in - East 8.1 mph - N/A   Unknown
8:00 PM 41.7 °F 35.6 °F 35.4 °F 78% 30.29 in - East 10.4 mph - N/A   Unknown
9:00 PM 41.4 °F 35.7 °F 34.7 °F 77% 30.29 in - ESE 9.2 mph - N/A   Unknown
10:00 PM 42 °F - 35 °F 66% 30.29 in - East 4.6 mph - -  
10:00 PM 41.5 °F 38.6 °F 34.5 °F 76% 30.29 in - East 4.6 mph - N/A   Unknown
11:00 PM 41.7 °F 38.8 °F 34.3 °F 75% 30.28 in - ESE 4.6 mph - N/A   Unknown